This is the latest recevied weather packets stored in our database for station/object N0QV. If no packets are shown the sender has not sent any weather packets the latest 10 day(s).
| Time | Temp. | Humidity | Pressure | Rain* | Wind** | Luminosity | Snow |
|---|---|---|---|---|---|---|---|
| 1788369288 | 28.33° C | 64% | 1012.7 hPa | 0 mm | - | 121 W/m² | - |
| 1788368984 | 28.89° C | 65% | 1012.5 hPa | 0 mm | - | 173 W/m² | - |
| 1788368679 | 28.33° C | 64% | 1012.7 hPa | 0 mm | - | 571 W/m² | - |
| 1788368375 | 28.89° C | 66% | 1012.9 hPa | 0 mm | - | 663 W/m² | - |
| 1788368074 | 28.89° C | 62% | 1013 hPa | 0 mm | - | 656 W/m² | - |
| 1788367774 | 28.89° C | 65% | 1013.1 hPa | 0 mm | - | 665 W/m² | - |
| 1788367470 | 28.33° C | 65% | 1012.9 hPa | 0 mm | - | 615 W/m² | - |
| 1788367169 | 27.78° C | 68% | 1013.3 hPa | 0 mm | - | 711 W/m² | - |
| 1788366864 | 27.78° C | 68% | 1013.3 hPa | 0 mm | - | 701 W/m² | - |
| 1788366562 | 27.78° C | 70% | 1013.3 hPa | 0 mm | - | 703 W/m² | - |
| 1788366258 | 27.78° C | 69% | 1013.4 hPa | 0 mm | - | 698 W/m² | - |
| 1788365957 | 27.78° C | 70% | 1013.5 hPa | 0 mm | - | 721 W/m² | - |
| 1788365652 | 27.22° C | 70% | 1013.6 hPa | 0 mm | - | 681 W/m² | - |
| 1788365349 | 27.78° C | 69% | 1013.5 hPa | 0 mm | - | 632 W/m² | - |
| 1788365044 | 27.22° C | 70% | 1013.4 hPa | 0 mm | - | 615 W/m² | - |
| 1788364742 | 26.67° C | 70% | 1013.4 hPa | 0 mm | - | 613 W/m² | - |
| 1788364442 | 26.11° C | 73% | 1013.3 hPa | 0 mm | - | 546 W/m² | - |
| 1788364136 | 25.56° C | 74% | 1013.5 hPa | 0 mm | - | 431 W/m² | - |
| 1788363832 | 25.56° C | 72% | 1013.1 hPa | 0 mm | - | 400 W/m² | - |
| 1788363531 | 25.56° C | 73% | 1013.3 hPa | 0 mm | - | 411 W/m² | - |
| 1788363250 | 25.56° C | 73% | 1013.1 hPa | 0 mm | - | 422 W/m² | - |
| 1788362926 | 25° C | 74% | 1013.3 hPa | 0 mm | - | 345 W/m² | - |
| 1788362622 | 25° C | 75% | 1012.9 hPa | 0 mm | - | 406 W/m² | - |
| 1788362317 | 25° C | 75% | 1013 hPa | 0 mm | - | 328 W/m² | - |
| 1788362012 | 25° C | 74% | 1012.7 hPa | 0 mm | - | 315 W/m² | - |
* Rain latest hour (hover to see other rain measurements)
** Current wind speed in m/s (hover to see current wind gust speed)